Simultaneous Nadir Overpasses (SNOs) Predictions

Prediction of SNOs between AQUA and GOES-15 Satellite Orbit:

Table of predicted SNOs for the next 14.0 days since TLE Epoch: 11/16/2018
Index Date Time (AQUA) AQUA Lat,Lon GOES-15 Lat,Lon Distance(km) Time Diff (sec)
1 11/16/2018 22:10:08 -0.21,-128.63 -0.08,-128.05 65.57 80
2 11/18/2018 21:57:57 0.42,-125.67 -0.09,-128.11 277.45 80
3 11/19/2018 10:19:14 0.62,-130.84 0.06,-128.24 296.36 80
4 11/21/2018 10:07:03 -0.01,-127.89 0.07,-128.29 45.96 22
5 11/23/2018 09:54:52 -0.64,-124.93 0.08,-128.34 387.51 80
6 11/23/2018 22:16:15 -0.45,-130.13 -0.05,-128.24 213.93 80
7 11/25/2018 22:04:04 0.19,-127.17 -0.06,-128.28 126.68 80
8 11/26/2018 10:25:21 0.86,-132.34 0.04,-128.41 446.73 80
9 11/27/2018 21:51:54 0.84,-124.22 -0.06,-128.32 466.67 80
10 11/28/2018 10:13:10 0.21,-129.39 0.04,-128.44 107.06 80
11 11/30/2018 10:00:58 -0.37,-126.42 0.04,-128.47 232.46 80




NCC Satellite Simultaneous Nadir Overpasses (SNOs) Prediction Service
